Location: Newark
(20.4406°S, 50.8231°W)
Time: 00:50:18
(UTC+00:00)

Envisat - Visible Passes

Search period start: 19 September 2019 00:00
Search period end: 29 September 2019 00:00
Orbit: 764 x 766 km, 98.1° (Epoch: 18 September)

Date Brightness Start Highest point End Pass type
(mag) Time Alt. Az. Time Alt. Az. Time Alt. Az.
19 Sep 5.3 23:04:27 10° SSW 23:08:27 24° WSW 23:12:26 10° NW visible
20 Sep 6.6 08:32:34 10° ESE 08:33:16 10° ESE 08:33:58 10° ESE visible
20 Sep 3.5 22:26:50 10° S 22:31:54 62° WSW 22:36:54 10° NNW visible
21 Sep 3.2 21:50:15 10° SSE 21:55:12 49° E 22:00:05 10° N visible
21 Sep 6.2 23:31:56 10° SW 23:33:42 12° WSW 23:35:30 10° W visible
22 Sep 4.9 22:52:48 10° SSW 22:57:16 31° WSW 23:01:42 10° NW visible
23 Sep 3.1 22:15:33 10° S 22:20:40 83° WSW 22:25:45 10° NNW visible
24 Sep 3.5 21:39:15 10° SSE 21:43:56 36° E 21:48:34 10° NNE visible
24 Sep 5.9 23:19:32 10° SW 23:22:34 16° WSW 23:25:35 10° WNW visible
25 Sep 6.1 08:44:21 10° ENE 08:47:21 16° ESE 08:50:22 10° SE visible
25 Sep 4.3 22:41:18 10° S 22:46:04 41° WSW 22:50:49 10° NW visible
26 Sep 2.9 22:04:19 10° SSE 22:09:26 74° ENE 22:14:30 10° N visible
27 Sep 5.5 23:07:38 10° SSW 23:11:24 21° WSW 23:15:10 10° WNW visible
28 Sep 6.4 08:34:28 10° E 08:36:13 12° ESE 08:37:58 10° SE visible
28 Sep 3.7 22:29:53 10° S 22:34:52 55° WSW 22:39:49 10° NNW visible
